EHI
0 0 0 0 0 0 0 0 0 0 0 0 0 0 0 0 0 0 0 0 0 0 0 0 0 0 0 0 0 0 0 0 0 0 0 0 0 0 0 0 0 0 0
0 0 0 0 0 0 0 0 0 0 0 0 0 0 0 0 0 0 0 0 0 0 0 0 0 0 0 0 0 0 0 0 0 0 0 0 0 0 0 0 0 0 0
0 0 0 0 0 0 0 0 0 0 0 0 0 0 0 0 0 0 0 0 0 0 0 0 0 0 0 0 0 0 0 0 0 0 0 0 0 0 0 0 0 0 0
0 0 0 0 0 0 0 0 0 0 0 0 0 0 0 0 0 0 0 0 0 0 0 0 0 0 0 0 0 0 0 0 0 0 0 0 0 0 0 0 0 0 0
0 0 0 0 0 0 0 0 0 0 0 0 0 0 0 0 0 0 0 0 0 0 0 0 0 0 0 0 0 0 0 0 0 0 0 0 0 0 0 0 0 0 0
0 0 0 0 0 0 0 0 0 0 0 0 0 0 0 0 0 0 0 0 0 0 0 0 0 0 0 0 0 0 0 0 0 0 0 0 0 0 0 0 0 0 0
0 0 0 0 0 0 0 0 0 0 0 0 0 0 0 0 0 0 0 0 0 0 0 0 0 0 0 0 0 0 0 0 0 0 0 0 0 0 0 0 0 0 0
0 0 0 0 0 0 0 0 0 0 0 0 0 0 0 0 0 0 0 0 0 0 0 0 0 0 0 0 0 0 0 0 0 0 0 0 0 0 0 0 0 0 0
0 0 0 0 0 0 0 0 0 0 0 0 0 0 0 0 0 0 0 0 0 0 0 0 0 0 0 0 0 0 0 0 0 0 0 0 0 0 0 0 0 0 0
0 0 0 0 0 0 0 0 0 0 0 0 0 0 0 0 0 0 0 0 0 0 0 0 0 0 0 0 0 0 0 0 0 0 0 0 0 0 0 0 0 0 0
0 0 0 0 0 0 0 0 0 0 0 0 0 0 0 0 0 0 0 0 0 0 0 0 0 0 0 0 0 0 0 0 0 0 0 0 0 0 0 0 0 0 0
0 0 0 0 0 0 0 0 0 0 0 0 0 0 0 0 0 0 0 0 0 0 0 0 0 0 0 0 0 0 0 0 0 0 0 0 0 0 0 0 0 0 0
0 0 0 0 0 0 0 0 0 0 0 0 0 0 0 0 0 0 0 0 0 0 0 0 0 0 0 0 0 0 0 0 0 0 0 0 0 0 0 0 0 0 0
0 0 0 0 0 0 0 0 0 0 0 0 0 0 0 0 0 0 0 0 0 0 0 0 0 0 0 0 0 0 0 0 0 0 0 0 0 0 0 0 0 0 0
0 0 0 0 0 0 0 0 0 0 0 0 0 0 0 0 0 0 0 0 0 0 0 0 0 0 0 0 0 0 0 0 0 0 0 0 0 0 0 0 0 0 0
0 0 0 0 0 0 0 0 0 0 0 0 0 0 0 0 0 0 0 0 0 0 0 0 0 0 0 0 0 0 0 0 0 0 0 0 0 0 0 0 0 0 0
0 0 0 0 0 0 0 0 0 0 0 0 0 0 0 0 0 0 0 0 0 0 0 0 0 0 0 0 0 0 0 0 0 0 0 0 0 0 0 0 0 0 0
0 0 0 0 0 0 0 0 0 0 0 0 0 0 0 0 0 0 0 0 0 0 0 0 0 0 0 0 0 0 0 0 0 0 0 0 0 0 0 0 0 0 0
0 0 0 0 0 0 0 0 0 0 0 0 0 0 0 0 0 0 0 0 0 0 0 0 0 0 0 0 0 0 0 0 0 0 0 0 0 0 0 0 0 0 0
0 0 0 0 0 0 0 0 0 0 0 0 0 0 0 0 0 0 0 0 0 0 0 0 0 0 0 0 0 0 0 0 0 0 0 0 0 0 0 0 0 0 0
0 0 0 0 0 0 0 0 0 0 0 0 0 0 0 0 0 0 0 0 0 0 0 0 0 0 0 0 0 0 0 0 0 0 0 0 0 0 0 0 0 0 0
0 0 0 0 0 0 0 0 0 0 0 0 0 0 0 0 0 0 0 0 0 0 0 0 0 0 0 0 0 0 0 0 0 0 0 0 0 0 0 0 0 0 0
0 0 0 0 0 0 0 0 0 0 0 0 0 0 0 0 0 0 0 0 0 0 0 0 0 0 0 0 0 0 0 0 0 0 0 0 0 0 0 0 0 0 0
0 0 0 0 0 0 0 0 0 0 0 0 0 0 0 0 0 0 0 0 0 0 0 0 0 0 0 0 0 0 0 0 0 0 0 0 0 0 0 0 0 0 0
0 0 0 0 0 0 0 0 0 0 0 0 0 0 0 0 0 0 0 0 0 0 0 0 0 0 0 0 0 0 0 0 0 0 0 0 0 0 0 0 0 0 0
0 0 0 0 0 0 0 0 0 0 0 0 0 0 0 0 0 0 0 0 0 0 0 0 0 0 0 0 0 0 0 0 0 0 0 0 0 0 0 0 0 0 0
Wind_Speed
5 6 15 17 18 19 19 20 21 22 22 23 24 24 24 25 25 25 26 26 26 26 26 27 27 27 27 27 27 27 27 27 27 28 28 27 24 24 22 20 18 11 15
5 7 15 16 17 18 19 19 20 21 22 22 23 23 24 24 24 24 25 25 25 26 26 26 26 26 26 26 26 27 27 27 27 28 28 23 23 24 23 23 22 14 18
6 8 11 15 16 17 18 19 20 21 21 22 23 23 23 23 23 24 24 24 24 25 25 26 26 26 26 26 26 26 26 27 27 28 25 14 15 23 24 23 23 23 21
7 8 9 14 15 17 18 18 19 20 21 21 22 22 23 23 23 23 23 24 24 24 24 25 25 25 26 26 26 27 26 26 26 26 15 14 13 21 23 23 24 24 23
7 7 9 13 14 16 17 18 18 19 20 20 21 22 22 22 22 23 23 23 24 24 24 24 24 25 25 26 26 27 27 26 26 20 13 13 11 19 23 22 23 23 23
7 6 7 12 13 14 16 17 17 18 19 20 20 21 22 22 22 22 22 23 23 24 24 24 24 24 24 25 25 26 26 26 22 12 12 12 10 19 22 21 22 23 24
6 5 6 10 11 12 14 15 16 17 18 19 19 21 21 21 21 22 22 23 24 24 25 25 25 25 25 25 25 25 25 26 17 12 12 11 12 22 22 21 22 23 24
5 5 4 9 10 10 11 13 14 15 17 18 18 20 21 21 22 22 22 23 24 25 25 26 26 25 26 26 25 25 24 23 18 15 13 10 17 23 22 22 22 23 23
5 5 4 5 7 10 11 11 13 14 16 17 18 20 21 21 22 23 23 24 25 25 26 26 26 26 27 26 25 25 25 26 15 10 14 10 20 24 23 23 23 23 23
5 5 4 5 5 4 6 10 12 13 15 17 18 20 21 20 20 22 21 24 25 26 26 27 27 28 27 26 26 26 26 21 10 11 9 13 25 26 25 24 24 24 24
6 5 5 5 4 5 5 9 9 11 13 14 12 18 16 8 8 11 18 24 25 26 26 26 27 28 27 24 26 27 22 8 11 9 9 19 26 27 27 26 25 25 25
6 4 5 4 4 4 5 5 3 4 5 5 5 7 5 6 7 12 18 22 24 24 24 25 27 24 19 10 16 21 8 10 9 9 11 26 28 29 29 28 27 26 26
6 4 4 3 3 4 3 3 2 2 3 4 5 6 5 5 5 6 5 9 10 14 9 13 13 9 10 10 10 10 10 9 7 9 12 28 30 30 30 30 29 28 27
6 5 3 2 3 3 3 3 3 2 2 3 4 5 4 3 4 5 4 5 5 5 6 6 6 9 10 11 12 12 12 10 9 9 12 28 31 31 32 31 31 29 28
6 5 4 2 3 2 2 2 3 3 2 3 3 3 4 3 4 5 5 5 6 5 5 6 7 8 9 10 10 13 13 13 13 13 11 26 32 32 33 33 32 31 29
6 5 4 3 2 1 1 2 2 2 2 2 2 4 4 3 4 4 5 5 5 5 5 6 8 8 7 7 9 11 12 13 12 14 13 17 29 33 33 33 32 31 30
7 5 5 2 0 1 2 2 2 2 2 2 2 3 4 4 4 4 5 5 5 5 6 6 8 6 8 9 10 10 11 11 13 15 16 14 15 25 32 33 32 31 30
7 5 4 1 1 1 2 2 2 2 2 2 2 2 3 4 5 4 4 5 6 5 5 6 6 6 7 8 8 9 10 10 13 15 16 16 15 15 21 31 32 31 29
7 6 5 4 2 1 2 2 3 2 2 2 2 2 3 4 4 4 4 5 6 5 5 8 7 6 8 8 9 9 8 9 12 16 18 19 18 18 15 23 30 29 27
8 6 5 4 2 0 1 2 2 2 2 2 2 2 3 3 4 4 5 5 6 5 6 6 8 8 7 8 12 12 10 10 11 12 16 16 16 19 17 16 13 14 21
8 7 6 4 2 1 0 1 2 2 3 3 3 3 3 4 5 5 5 5 5 6 7 8 8 9 8 7 9 12 11 10 11 11 11 12 16 18 15 13 9 7 7
10 8 6 5 3 1 1 1 2 3 3 4 3 2 3 4 5 6 5 5 5 6 8 8 8 8 10 7 8 13 13 12 8 11 10 13 14 12 14 15 11 9 6
10 9 7 5 3 3 1 1 3 3 3 3 3 3 4 5 5 5 6 5 6 6 6 8 8 9 10 10 6 7 10 12 15 10 11 12 11 12 12 11 12 10 9
9 8 7 6 5 4 2 2 2 3 3 4 3 4 5 5 5 6 6 6 6 6 7 8 9 8 9 11 9 7 9 11 12 14 10 8 12 12 12 12 11 11 10
10 9 7 6 6 5 4 3 3 4 3 3 4 5 5 5 5 6 6 5 6 6 7 8 9 8 7 9 9 10 11 10 10 10 14 14 11 10 10 11 10 10 11
10 9 7 6 6 5 5 4 4 4 4 5 5 5 4 4 4 6 6 5 6 6 7 8 8 9 8 9 8 8 10 10 11 10 11 13 13 12 11 10 10 10 10
Wind_Direction
26 22 16 15 19 21 23 24 25 25 25 23 22 21 20 19 17 16 14 13 11 9 8 6 5 3 1 360 358 355 352 351 349 348 342 337 338 340 341 345 344 333 333
35 29 20 19 22 23 25 25 25 25 24 22 21 19 18 17 15 14 13 11 9 7 5 3 2 360 359 357 355 353 350 349 348 346 339 338 343 338 344 346 342 338 334
53 43 22 22 25 26 26 26 25 23 22 20 18 17 15 14 13 12 11 9 7 5 3 1 358 356 354 353 351 349 347 346 346 343 340 340 339 334 337 341 340 338 338
65 54 27 28 28 28 27 26 24 22 20 18 16 14 12 11 10 9 8 7 4 2 0 358 356 353 351 349 347 344 343 342 342 341 340 333 332 327 329 335 336 336 336
76 70 34 32 31 30 28 25 23 20 17 15 13 11 9 8 7 6 6 4 2 359 357 355 353 350 348 346 343 340 339 338 338 340 329 324 321 320 323 328 331 332 332
78 80 51 35 33 30 27 25 21 17 14 12 11 9 7 5 4 4 3 1 359 356 354 352 350 348 345 343 339 337 335 334 336 329 321 315 316 314 316 322 326 328 327
82 81 71 43 33 29 25 21 17 14 12 9 9 7 5 3 2 1 1 359 356 353 352 349 347 345 343 340 337 334 332 331 329 326 315 309 310 309 312 318 322 323 322
89 72 62 44 32 23 21 18 12 10 8 7 7 6 3 1 360 359 360 356 353 351 350 347 344 343 341 339 336 333 332 330 325 317 308 304 307 308 311 314 317 317 317
88 75 62 55 28 10 9 14 6 7 6 5 6 5 2 1 359 357 358 353 351 350 348 345 343 343 340 338 336 335 333 328 326 311 310 314 306 305 307 310 310 311 311
106 83 52 56 40 11 357 360 3 4 4 4 4 3 3 360 356 353 353 348 348 348 346 344 344 342 340 341 338 335 333 332 323 319 314 305 303 303 303 304 305 305 305
107 90 70 49 33 12 353 359 359 359 1 3 2 360 1 352 347 347 345 346 347 346 345 344 343 342 343 340 336 333 335 326 320 312 304 299 300 302 302 301 301 300 300
99 82 75 54 35 18 359 354 340 350 357 355 2 358 351 351 340 350 345 343 344 342 344 341 340 343 341 332 330 332 323 317 315 309 308 307 305 302 300 298 296 295 294
108 88 79 69 54 30 352 341 330 335 355 348 359 353 354 351 340 347 342 337 337 337 339 333 336 334 329 327 323 320 317 318 313 310 308 305 302 299 297 295 293 291 290
119 112 90 71 73 42 357 322 320 342 348 337 347 351 360 345 340 341 332 328 329 328 328 330 328 323 322 321 319 316 318 317 312 308 300 302 301 299 296 293 290 287 285
133 127 117 90 69 37 331 315 343 336 334 328 339 351 359 347 339 335 327 323 321 322 327 325 318 317 318 315 314 317 316 312 308 303 303 302 300 297 294 290 287 284 281
139 130 112 78 48 356 346 344 318 316 310 331 337 346 348 352 339 328 321 317 315 320 320 313 312 312 309 308 311 312 310 306 303 303 302 301 299 295 292 288 285 282 279
136 135 128 144 82 352 355 325 303 283 310 320 327 337 341 356 333 326 313 311 311 314 312 308 305 303 308 312 309 306 304 303 302 301 299 296 293 292 289 286 283 280 276
146 149 138 153 3 347 346 303 284 290 317 310 330 326 341 344 327 320 309 306 306 310 307 304 299 309 306 302 301 301 300 300 301 301 299 295 291 286 284 282 280 278 274
159 153 161 157 206 301 318 294 301 309 319 318 317 313 327 324 318 317 303 297 308 308 303 307 316 305 303 304 302 299 299 301 299 299 297 294 289 283 275 274 273 272 272
155 158 175 170 177 63 338 325 310 318 318 300 288 291 315 311 314 312 296 300 307 303 302 303 303 301 299 301 306 305 297 294 295 293 295 298 299 292 282 272 270 274 275
160 173 180 174 162 131 79 328 310 310 299 292 282 294 312 308 306 298 296 298 301 299 298 300 302 304 302 298 304 304 297 288 287 293 296 304 302 301 300 297 287 278 277
174 176 172 169 153 162 155 254 254 267 270 269 269 304 306 300 294 298 296 295 294 295 297 298 302 300 304 308 304 306 305 305 295 302 299 297 300 307 309 305 300 291 281
178 171 165 157 173 196 178 247 278 287 289 300 323 315 294 289 287 289 289 290 292 294 295 298 299 304 308 307 293 294 300 304 310 299 295 295 300 301 299 298 294 292 286
170 145 149 167 188 199 197 233 271 284 287 291 291 282 286 290 295 295 290 292 293 291 291 298 308 301 304 308 309 290 282 287 298 305 306 296 300 303 308 309 308 302 292
149 146 158 174 194 199 200 229 251 265 273 283 289 289 295 295 294 294 291 296 295 292 291 297 301 300 298 297 305 308 304 296 286 288 300 307 307 303 302 301 299 293 287
141 147 161 182 200 198 202 225 240 261 280 292 296 298 296 291 289 291 297 298 294 291 292 295 298 300 298 299 302 304 305 305 303 294 290 297 302 303 300 297 294 290 284